BEIDOU-2 G8

Last updated on Wed Sep 09 2026 00:03:02 GMT+0000 (Coordinated Universal Time)

1 44231U 19027A 26251.50340488 -.00000267 00000+0 00000+0 0 9995 2 44231 1.8630 74.3148 0008975 278.1586 320.8617 1.00272985 26916
UTC large
Height (km)
Speed (km/s)
/
Latitude / Longitude
Inclination (degrees)
Orbital Period (minutes)
Azimuth
Elevation
Range (km)
Doppler Factor

Next 0 passes for location: London (51.5072 / 0.1276)

No passes found over London.
BEIDOU-2 G8